Weather History for Gwinn, MI

Change the Weather History Date:

Sunday, May 26, 2013

  Actual Average (KESC) Record (KESC)
Temperature  
Mean Temperature 48 °F -  
Max Temperature 64 °F 60 °F 77 °F (2008)
Min Temperature 31 °F 46 °F 33 °F (2013)
Degree Days  
Heating Degree Days 18    
Moisture  
Dew Point 30 °F    
Average Humidity 60    
Maximum Humidity 87    
Minimum Humidity 30    
Precipitation  
Precipitation 0.00 in - - ()
Sea Level Pressure  
Sea Level Pressure 30.31 in    
Wind  
Wind Speed 1 mph (NE)    
Max Wind Speed 14 mph    
Max Gust Speed 18 mph    
Visibility 10 miles    
Events      
Averages and records for this station are not official NWS values.
T = Trace of Precipitation, MM = Missing Value Source: NWS Daily Summary

Daily Weather History Graph

Daily Weather History Graph

Search for Another Location

Airport:

Trip Planner

Search our weather history database for the weather conditions in past years. The results will help you decide how hot, cold, wet, or windy it might be!

Date:

Astronomy

May. 26, 2013 Rise Set
Actual Time 6:05 AM EDT 9:28 PM EDT
Civil Twilight 5:28 AM EDT 10:06 PM EDT
Nautical Twilight 4:39 AM EDT 10:54 PM EDT
Astronomical Twilight 3:37 AM EDT 11:57 PM EDT
Moon 11:14 PM EDT (5/26) 7:34 AM EDT (5/26)
Length of Visible Light 16h 37m
Length of Day
15h 23m
Waning Gibbous, 97% of the Moon is Illuminated
May 26
Waning Gibbous
May 31
Last Quarter
Jun 8
New
Jun 16
First Quarter
Jun 23
Full

Hourly Weather History & Observations

Time (EDT) Temp. Dew Point Humidity Pressure Visibility Wind Dir Wind Speed Gust Speed Precip Events Conditions
12:17 AM 38.3 °F 30.9 °F 75% 30.35 in 10.0 mi Calm Calm - N/A   Clear
12:37 AM 36.9 °F 30.0 °F 76% 30.36 in 10.0 mi Calm Calm - N/A   Clear
12:57 AM 37.0 °F 30.4 °F 77% 30.35 in 10.0 mi Calm Calm - N/A   Clear
1:16 AM 37.9 °F 30.0 °F 73% 30.35 in 10.0 mi Calm Calm - N/A   Clear
1:37 AM 36.9 °F 29.5 °F 75% 30.35 in 10.0 mi Calm Calm - N/A   Clear
1:57 AM 36.3 °F 29.1 °F 75% 30.35 in 10.0 mi Calm Calm - N/A   Clear
2:16 AM 37.2 °F 30.0 °F 75% 30.34 in 10.0 mi Calm Calm - N/A   Clear
2:37 AM 35.6 °F 28.6 °F 76% 30.35 in 10.0 mi Calm Calm - N/A   Clear
2:57 AM 32.5 °F 26.6 °F 79% 30.34 in 10.0 mi Calm Calm - N/A   Clear
3:17 AM 32.4 °F 27.5 °F 82% 30.35 in 10.0 mi Calm Calm - N/A   Clear
3:37 AM 32.4 °F 28.4 °F 85% 30.34 in 10.0 mi Calm Calm - N/A   Clear
3:56 AM 33.1 °F 28.4 °F 83% 30.33 in 10.0 mi Calm Calm - N/A   Clear
4:17 AM 32.0 °F 27.9 °F 85% 30.33 in 10.0 mi Calm Calm - N/A   Clear
4:37 AM 31.8 °F 28.0 °F 86% 30.33 in 10.0 mi Calm Calm - N/A   Clear
4:56 AM 32.0 °F 28.2 °F 86% 30.34 in 10.0 mi Calm Calm - N/A   Clear
5:17 AM 31.8 °F 28.4 °F 87% 30.34 in 10.0 mi Calm Calm - N/A   Clear
5:37 AM 31.8 °F 28.2 °F 87% 30.36 in 10.0 mi Calm Calm - N/A   Clear
5:57 AM 32.5 °F 28.6 °F 85% 30.36 in 10.0 mi Calm Calm - N/A   Clear
6:50 AM 33.8 °F 28.4 °F 81% 30.35 in 10.0 mi Calm Calm - N/A   Partly Cloudy
7:50 AM 42.8 °F 33.8 °F 70% 30.37 in 10.0 mi Calm Calm - N/A   Partly Cloudy
8:50 AM 50.0 °F 32.0 °F 50% 30.38 in 10.0 mi Calm Calm - N/A   Partly Cloudy
9:50 AM 57.2 °F 28.4 °F 33% 30.36 in 10.0 mi East 3.5 mph - N/A   Scattered Clouds
10:50 AM 60.8 °F 30.2 °F 31% 30.35 in 10.0 mi East 4.6 mph - N/A   Clear
11:50 AM 62.6 °F 32.0 °F 32% 30.34 in 10.0 mi Calm Calm - N/A   Clear
12:50 PM 62.6 °F 33.8 °F 34% 30.33 in 10.0 mi NNE 3.5 mph - N/A   Clear
1:55 PM 62.6 °F 32.0 °F 32% 30.32 in 10.0 mi North 12.7 mph 18.4 mph N/A   Clear
2:55 PM 64.4 °F 32.0 °F 30% 30.30 in 10.0 mi NNE 13.8 mph - N/A   Clear
3:50 PM 64.4 °F 32.0 °F 30% 30.28 in 10.0 mi NE 12.7 mph - N/A   Clear
4:50 PM 64.4 °F 32.0 °F 30% 30.27 in 10.0 mi ENE 9.2 mph - N/A   Clear
5:50 PM 62.6 °F 32.0 °F 32% 30.26 in 10.0 mi NE 9.2 mph 17.3 mph N/A   Clear
6:55 PM 62.6 °F 32.0 °F 32% 30.24 in 10.0 mi NE 12.7 mph - N/A   Clear
7:50 PM 60.8 °F 30.2 °F 31% 30.24 in 10.0 mi ENE 8.1 mph - N/A   Clear
8:50 PM 59.0 °F 30.2 °F 34% 30.23 in 10.0 mi East 4.6 mph - N/A   Clear
9:50 PM 57.2 °F 30.2 °F 36% 30.24 in 10.0 mi Calm Calm - N/A   Clear
10:17 PM 51.6 °F 31.3 °F 46% 30.25 in 10.0 mi Calm Calm - N/A   Clear
10:36 PM 52.0 °F 31.6 °F 46% 30.26 in 10.0 mi Calm Calm - N/A   Clear
10:57 PM 49.5 °F 33.3 °F 54% 30.26 in 10.0 mi Calm Calm - N/A   Clear
11:17 PM 48.2 °F 32.2 °F 54% 30.25 in 10.0 mi Calm Calm - N/A   Clear
11:36 PM 46.8 °F 32.0 °F 57% 30.25 in 10.0 mi Calm Calm - N/A   Clear
11:57 PM 45.0 °F 32.0 °F 60% 30.24 in 10.0 mi Calm Calm - N/A   Clear